[[{"header":{"parameterUnit":"m.s-1","parameterCategory":1,"la1":30.2991,"la2":30.254,"lo1":-89.0895,"lo2":-89.0444,"dy":0.0017,"dx":0.0017,"nx":28,"ny":28,"refTime":"2025-06-09T03:00:00:Z","depth":0,"parameterNumber":2,"parameterNumberName":"U-component_of_WINDS"},"data":[0,0,0,0,0,0,0,0,0,0,0,0,0,0,0,0,0,0,0,0,0,0,0,0,0,0,0,0,0,0,0,0,0,0,0,0,0,0,0,0,0,0,0,0,0,0,0,0,0,0,0,0,0,0,0,0,0,0,5.0,5.0002,0,5.0154,5.0156,5.0158,5.0131,5.0128,5.0125,5.0123,5.0281,5.0288,5.0295,0,0,0,0,0,0,0,0,0,0,0,0,0,4.9682,4.9688,5.0,5.0002,5.0004,5.0154,5.0156,5.0158,5.0131,5.0128,5.0124,5.0121,5.0279,5.0287,5.0295,0,0,0,0,0,0,0,0,0,0,0,0,0,4.9827,4.969,5.0,5.0009,5.0011,5.0154,5.0156,5.0159,5.0132,5.0128,5.0124,5.012,5.0276,5.0286,5.0296,5.0441,0,0,5.0327,5.0332,0,0,0,0,0,0,0,0,4.9819,4.9839,5.0005,5.0008,5.0011,5.0119,5.0102,5.0253,5.0133,5.0086,5.0123,5.0118,5.0231,5.0244,5.0282,5.0448,5.0455,5.0328,5.0334,5.0339,5.0342,0,0,0,0,0,0,0,4.9809,4.9832,5.0061,5.0008,5.0011,5.0005,5.0021,5.0131,5.0179,5.009,5.0088,5.0107,5.0231,5.0273,5.0286,5.0457,5.0328,5.0337,5.0343,5.0347,5.0747,5.0751,0,0,0,0,0,0,4.9796,4.9824,5.0056,5.0066,4.9903,5.0014,5.0032,5.0089,5.0178,5.0188,5.011,5.0105,5.0257,5.0274,5.0291,5.0464,5.0339,5.0348,5.0354,5.0742,5.0748,5.0752,0,0,0,0,0,0,4.9789,4.9817,5.005,4.9944,4.9974,5.0024,5.0088,5.0094,5.0135,5.0193,5.0202,5.0143,5.0255,5.0277,5.0403,5.0469,5.0353,5.0362,5.0737,5.0744,5.075,5.0811,0,0,0,0,0,0,4.978,4.9815,4.987,4.9946,4.9979,5.016,5.0092,5.01,5.0152,5.0147,5.0227,5.0236,5.0253,5.0388,5.0413,5.0481,5.037,5.0731,5.074,5.0748,5.0804,5.0819,5.0833,0,0,0,0,0,4.9769,4.9882,4.9873,4.9901,5.005,5.0163,5.0183,5.02,5.0158,5.0213,5.0251,5.0233,5.0458,5.0401,5.0429,5.0501,5.0727,5.0737,5.0747,5.0797,5.0816,5.0833,0,0,0,0,0,0,4.9813,4.9892,4.9883,5.0024,5.0087,5.0159,5.0229,5.022,5.0297,5.0289,5.0307,5.0326,5.0453,5.049,5.0425,5.0644,5.0587,5.0603,5.0615,5.0634,5.0648,5.0635,5.0378,0,0,0,0,0,4.9839,4.9925,4.999,5.0108,5.014,5.0179,5.023,5.0237,5.0304,5.033,5.0377,5.0442,5.0527,5.0583,5.0665,5.081,5.0825,5.0873,5.0887,5.0899,5.0912,5.0989,5.101,5.0786,5.0786,5.0786,0,0,4.9894,4.9948,5.0001,5.0118,5.0168,5.0255,5.0202,5.0298,5.0363,5.0345,5.0466,5.0503,5.0577,5.0712,5.0774,5.0747,5.0978,5.0912,5.0921,5.0928,5.1002,5.1023,5.1042,5.0793,5.0792,5.079,0,0,5.0038,5.0089,5.0191,5.0242,5.0318,5.0343,5.0368,5.0441,5.0464,5.0586,5.0574,5.0652,5.0799,5.0851,5.0897,5.1061,5.1046,5.1087,5.1163,5.1238,5.1255,5.1271,5.1327,5.1347,5.11,5.1101,5.1101,0,5.0097,5.0229,5.0246,5.0342,5.0393,5.0381,5.0484,5.0533,5.0632,5.0667,5.0635,5.0818,5.0867,5.1013,5.1053,5.1092,5.1119,5.1077,5.1251,5.1267,5.1282,5.1336,5.1357,5.1105,5.1104,5.1104,5.1103,0,5.0296,5.0387,5.0461,5.0556,5.0616,5.0715,5.0747,5.0805,5.0808,5.0836,5.096,5.1018,5.111,5.1146,5.1151,5.1293,5.1274,5.1247,5.1189,5.1307,5.1358,5.1379,5.1111,5.1109,5.1108,5.1107,0,0,5.0471,5.0573,5.06,5.0642,5.0724,5.0795,5.0894,5.0984,5.1033,5.1102,5.1184,5.1308,5.1283,5.1335,5.1345,5.1411,5.1534,5.1376,5.1378,5.1401,5.1692,5.1709,5.1733,5.1526,5.153,5.1533,5.1684,0,5.0621,5.0795,5.0812,5.0968,5.1051,5.1041,5.1126,5.1186,5.1216,5.1291,5.1324,5.141,5.1372,5.1403,5.1468,5.1505,5.1592,5.1495,5.1601,5.1605,5.158,5.176,5.1779,5.1919,5.1705,5.1708,5.171,0,5.0819,5.0892,5.1055,5.1124,5.116,5.1237,5.132,5.1392,5.146,5.1476,5.1534,5.1535,5.1636,5.1576,5.1714,5.1648,5.1693,5.1717,5.1723,5.1732,5.1663,5.177,5.1964,5.1984,5.1742,5.174,5.1737,0,5.0927,5.1067,5.1182,5.1219,5.1303,5.1357,5.1395,5.1458,5.151,5.1583,5.1616,5.17,5.1746,5.181,5.1834,5.1788,5.1971,5.1913,5.1986,5.1985,5.2023,5.202,5.2224,5.2056,5.2056,5.2056,5.2055,0,5.1091,5.1191,5.1231,5.1302,5.1413,5.1432,5.1542,5.1577,5.1633,5.1709,5.1707,5.1779,5.1806,5.1883,5.1902,5.2012,5.2034,5.2049,5.2052,5.2048,5.2046,5.2076,5.2065,5.2061,5.206,5.2059,5.2058,0,5.123,5.1261,5.1386,5.1455,5.1475,5.1553,5.1612,5.168,5.1709,5.1806,5.1829,5.1874,5.1964,5.1994,5.2103,5.2116,5.2244,5.224,5.222,5.222,5.229,5.2282,5.2519,5.255,5.2365,5.2366,5.2368,0,5.1331,5.1407,5.1485,5.1535,5.1575,5.1657,5.171,5.1732,5.1787,5.1869,5.1926,5.2015,5.2087,5.2231,5.2273,5.2356,5.2353,5.243,5.2365,5.2357,5.235,5.2344,5.2351,5.2441,5.2443,5.2445,5.2446,0,5.1507,5.1518,5.1594,5.1676,5.1739,5.1804,5.1868,5.1909,5.1941,5.2003,5.2094,5.215,5.226,5.2348,5.2432,5.2471,5.2463,5.2466,5.2487,5.2482,5.2466,5.2472,5.225,5.246,5.2459,5.2458,5.2457,5.2457,5.1628,5.1694,5.1758,5.1843,5.1892,5.1951,5.2017,5.2054,5.213,5.2221,5.223,5.2328,5.2392,5.2505,5.2547,5.2624,5.2602,5.2633,5.264,5.2646,5.265,5.2456,5.264,5.2639,5.2639,5.2639,5.2638,0,5.1801,5.1841,5.1919,5.2007,5.2073,5.206,5.213,5.2185,5.2271,5.2332,5.2402,5.2506,5.2591,5.2639,5.2724,5.2776,5.2774,5.2797,5.2792,5.28,5.2667,5.2639,5.2796,5.2796,5.2796,5.2796,5.2796,5.2796,5.1898,5.2008,5.2028,5.2162,5.2202,5.2297,5.2337,5.2391,5.2439,5.2555,5.2625,5.2656,5.2712,5.28,5.2877,5.2889,5.2919,5.2943,5.2953,5.2826,5.281,5.2794,5.2768,5.295,5.2951,5.308,5.3081,5.3082]},{"header":{"parameterUnit":"m.s-1","parameterCategory":1,"la1":30.2991,"la2":30.254,"lo1":-89.0895,"lo2":-89.0444,"dy":0.0017,"dx":0.0017,"nx":28,"ny":28,"refTime":"2025-06-09T03:00:00:Z","depth":0,"parameterNumber":3,"parameterNumberName":"V-component_of_WINDS"},"data":[0,0,0,0,0,0,0,0,0,0,0,0,0,0,0,0,0,0,0,0,0,0,0,0,0,0,0,0,0,0,0,0,0,0,0,0,0,0,0,0,0,0,0,0,0,0,0,0,0,0,0,0,0,0,0,0,0,0,2.17,2.17,0,2.1716,2.1716,2.1717,2.1658,2.1656,2.1654,2.1652,2.1669,2.1671,2.1673,0,0,0,0,0,0,0,0,0,0,0,0,0,2.1617,2.1619,2.17,2.17,2.17,2.1716,2.1717,2.1717,2.1658,2.1656,2.1654,2.1652,2.1668,2.1671,2.1673,0,0,0,0,0,0,0,0,0,0,0,0,0,2.1645,2.162,2.17,2.1673,2.1671,2.1716,2.1717,2.1717,2.1658,2.1656,2.1653,2.1651,2.1667,2.167,2.1674,2.1746,0,0,2.1683,2.1684,0,0,0,0,0,0,0,0,2.1644,2.1648,2.1677,2.1675,2.1672,2.1682,2.1693,2.1727,2.1659,2.1663,2.1652,2.1649,2.1675,2.1678,2.1687,2.1747,2.1747,2.1683,2.1685,2.1687,2.1687,0,0,0,0,0,0,0,2.1642,2.1647,2.1706,2.1677,2.1675,2.166,2.1661,2.1699,2.1684,2.1662,2.1658,2.1661,2.1674,2.1684,2.1687,2.1748,2.1683,2.1686,2.1688,2.1689,2.1867,2.187,0,0,0,0,0,0,2.1644,2.1646,2.1706,2.1707,2.1651,2.1663,2.1665,2.1682,2.1683,2.1681,2.1663,2.1658,2.168,2.1683,2.1687,2.1772,2.1687,2.169,2.1691,2.1864,2.1868,2.1871,0,0,0,0,0,0,2.1642,2.165,2.1705,2.1675,2.1681,2.1668,2.1687,2.1683,2.1693,2.1684,2.1681,2.1676,2.1678,2.1683,2.1732,2.1771,2.1691,2.1694,2.1861,2.1865,2.1869,2.1942,0,0,0,0,0,0,2.164,2.1649,2.1677,2.1677,2.1683,2.175,2.169,2.1686,2.1699,2.1692,2.1695,2.1693,2.1676,2.1727,2.1735,2.1774,2.1696,2.1857,2.1863,2.1868,2.1936,2.1948,2.1959,0,0,0,0,0,2.1637,2.1697,2.1679,2.1686,2.1717,2.1753,2.1756,2.1735,2.1702,2.173,2.1724,2.1693,2.1766,2.1733,2.1741,2.1782,2.1855,2.1861,2.1868,2.1931,2.1946,2.1958,0,0,0,0,0,0,2.1702,2.1696,2.1676,2.1737,2.1746,2.1742,2.1777,2.1752,2.177,2.1763,2.1736,2.1737,2.1791,2.1791,2.1755,2.1852,2.1805,2.1813,2.185,2.1864,2.1875,2.1874,2.1699,0,0,0,0,0,2.1724,2.1753,2.1746,2.1801,2.1806,2.1791,2.1805,2.1788,2.1796,2.1799,2.1797,2.1805,2.183,2.1847,2.1869,2.1935,2.1935,2.1967,2.1979,2.1988,2.1996,2.2031,2.2045,2.1892,2.1892,2.1892,0,0,2.1768,2.1769,2.1789,2.1814,2.1818,2.1849,2.1794,2.1829,2.1851,2.1804,2.1851,2.1849,2.1857,2.1915,2.194,2.1917,2.2038,2.1996,2.2004,2.2006,2.2039,2.2053,2.2066,2.1896,2.1896,2.1895,0,0,2.1866,2.1869,2.1915,2.192,2.1928,2.1917,2.1928,2.1929,2.1926,2.1972,2.1937,2.1963,2.2006,2.2013,2.2022,2.2122,2.2094,2.2129,2.2189,2.2224,2.2236,2.2246,2.2282,2.2295,2.2137,2.2137,2.2137,0,2.192,2.1965,2.1941,2.1979,2.199,2.1949,2.1995,2.2002,2.2017,2.2026,2.1999,2.2051,2.2054,2.2113,2.2137,2.2146,2.2157,2.2129,2.2236,2.2246,2.2256,2.2289,2.2303,2.2142,2.2141,2.2141,2.214,0,2.2032,2.2064,2.21,2.2115,2.2131,2.2172,2.2154,2.2173,2.2155,2.2147,2.2194,2.2195,2.2217,2.2229,2.2212,2.2286,2.2271,2.224,2.2193,2.2275,2.2306,2.2319,2.2148,2.2146,2.2145,2.2144,0,0,2.2172,2.2173,2.2186,2.2193,2.2198,2.2222,2.2261,2.2282,2.2299,2.231,2.2342,2.2379,2.2351,2.2362,2.2344,2.2374,2.2453,2.234,2.2339,2.2361,2.2535,2.2558,2.2574,2.2434,2.2437,2.2439,2.2534,0,2.2267,2.2335,2.2314,2.2382,2.2411,2.2372,2.2406,2.2413,2.2407,2.243,2.2422,2.2449,2.241,2.2416,2.2444,2.2438,2.2488,2.243,2.2464,2.2466,2.2464,2.259,2.2615,2.2705,2.2546,2.2548,2.255,0,2.2388,2.2404,2.2476,2.2476,2.2487,2.2518,2.2536,2.2558,2.2565,2.2558,2.257,2.2546,2.2584,2.2536,2.2588,2.255,2.2562,2.2561,2.2564,2.2567,2.2513,2.2597,2.2733,2.2747,2.2569,2.2567,2.2566,0,2.2483,2.2523,2.257,2.2577,2.2578,2.2601,2.2602,2.2606,2.262,2.2635,2.2644,2.2663,2.2674,2.269,2.2671,2.2638,2.2727,2.2677,2.2722,2.2723,2.2743,2.2742,2.2885,2.2751,2.275,2.275,2.275,0,2.2593,2.2638,2.2613,2.2642,2.2692,2.2667,2.2716,2.2713,2.2717,2.2745,2.2712,2.2739,2.2713,2.2737,2.2723,2.2769,2.2774,2.2769,2.2765,2.2773,2.2773,2.2781,2.2774,2.2754,2.2753,2.2752,2.2752,0,2.2708,2.2693,2.2742,2.2739,2.2739,2.2776,2.2773,2.28,2.279,2.2826,2.2833,2.2819,2.2846,2.2829,2.2856,2.2847,2.2906,2.2893,2.2904,2.2901,2.2947,2.2943,2.31,2.3119,2.2973,2.2974,2.2975,0,2.2779,2.2812,2.2813,2.2829,2.2833,2.286,2.2874,2.2851,2.2866,2.2876,2.2902,2.2926,2.2944,2.2989,2.2981,2.3002,2.2989,2.3042,2.2992,2.2998,2.299,2.2989,2.2992,2.3053,2.3055,2.3056,2.3057,0,2.2906,2.2897,2.2919,2.2938,2.2956,2.2969,2.2981,2.2996,2.2972,2.2992,2.3019,2.3033,2.3061,2.3085,2.3102,2.3103,2.3077,2.3073,2.3085,2.3093,2.3098,2.3096,2.2933,2.307,2.3068,2.3068,2.3067,2.3066,2.3002,2.303,2.3035,2.306,2.3066,2.3077,2.3102,2.3096,2.3118,2.3139,2.3124,2.3156,2.3161,2.3181,2.3186,2.3211,2.3189,2.3206,2.321,2.3215,2.3221,2.3094,2.3214,2.3213,2.3213,2.3212,2.3212,0,2.3128,2.3129,2.3152,2.3169,2.3189,2.3161,2.3172,2.319,2.3219,2.3226,2.3245,2.3276,2.3299,2.3293,2.3314,2.3335,2.3323,2.3341,2.3339,2.334,2.3239,2.3227,2.335,2.335,2.335,2.335,2.335,2.335,2.3196,2.3242,2.3234,2.3283,2.3283,2.3315,2.3323,2.3333,2.3339,2.3375,2.3394,2.339,2.3391,2.3412,2.3432,2.3429,2.3439,2.3462,2.3455,2.3361,2.3347,2.3334,2.3323,2.3464,2.3464,2.3553,2.3554,2.3555]}]]